Simultaneous Nadir Overpasses (SNOs) Predictions

Prediction of SNOs between GOES-17 and METOP-B Satellite Orbit:

Table of predicted SNOs for the next 14.0 days since TLE Epoch: 7/23/2022
Index Date Time (GOES-17) GOES-17 Lat,Lon METOP-B Lat,Lon Distance(km) Time Diff (sec)
1 07/24/2022 06:51:38 -0.00,-137.29 -0.72,-140.63 379.37 80
2 07/25/2022 06:33:37 -0.01,-137.29 0.35,-135.62 189.87 80
3 07/26/2022 18:49:49 0.00,-137.29 0.68,-140.18 329.94 80
4 07/27/2022 18:31:49 0.00,-137.29 -0.45,-135.19 238.88 80
5 07/29/2022 06:48:09 0.00,-137.27 -0.53,-139.79 286.32 80
6 07/30/2022 06:30:09 0.01,-137.27 0.54,-134.79 282.11 80
7 07/31/2022 18:46:21 -0.02,-137.26 0.42,-139.36 238.72 80
8 08/01/2022 18:28:21 -0.02,-137.25 -0.65,-134.36 329.56 80
9 08/03/2022 06:44:40 0.02,-137.23 -0.38,-138.95 196.23 80
10 08/04/2022 06:26:41 0.02,-137.22 0.75,-133.96 371.70 80
11 08/05/2022 18:42:52 -0.02,-137.20 0.26,-138.52 150.15 80
